Regional Weather Roundup
Issued by NWS Burlington, VT

Home | Current Version | Previous Version | Text Only | Print | Product List | Glossary On
Versions: 1 2 3 4 5 6 7 8 9 10 11 12 13 14 15 16 17 18 19 20 21 22 23 24 25 26 27 28 29 30 31 32 33 34 35 36 37 38 39 40 41 42 43 44 45 46 47 48 49 50
000
ASUS41 KBTV 261430
RWRBTV
VERMONT REGIONAL WEATHER ROUNDUP
NATIONAL WEATHER SERVICE BURLINGTON VT
1000 AM EDT WED APR 26 2017

NOTE: "FAIR" INDICATES FEW OR NO CLOUDS BELOW 12,000 FEET WITH NO
SIGNIFICANT WEATHER AND/OR OBSTRUCTIONS TO VISIBILITY.

* THESE REPORTS ARE NOT UNDER NWS QUALITY CONTROL AND/OR DO NOT
  REPORT WEATHER SUCH AS PRECIPITATION AND FOG.

VTZ001>019-261500-
_____VERMONT_____


CITY           SKY/WX    TMP DP  RH WIND       PRES   REMARKS
BURLINGTON     PTSUNNY   57  51  80 S6        29.90
MONTPELIER     LGT RAIN  49  48  97 CALM      29.97
MORRISVILLE    CLOUDY    50  48  93 S5        29.95S
ST. JOHNSBURY*   N/A     52  49  89 MISG      29.93
LYNDONVILLE*   CLOUDY    52  49  90 CALM      29.95F
RUTLAND*       CLOUDY    54  49  83 S10       29.89F
SPRINGFIELD    LGT RAIN  50  48  93 CALM      29.93F FOG
HIGHGATE*      CLOUDY    56  54  92 CALM      29.91S
NEWPORT*       PTSUNNY   53  49  88 CALM      29.94F
BENNINGTON     CLOUDY    57  49  74 CALM      29.86S

_____LAKE CHAMPLAIN_____


CITY           SKY/WX    TMP DP  RH WIND       PRES   REMARKS

$$

NYZ007-026>031-035-052-083-087-261500-
_____NORTHERN NEW YORK_____


CITY           SKY/WX    TMP DP  RH WIND       PRES   REMARKS
PLATTSBURGH    CLOUDY    53  50  89 CALM      29.91
SARANAC LAKE   LGT RAIN  56  55  97 E6        29.85F
MASSENA        CLOUDY    53  50  89 NE13      29.89
OGDENSBURG*    CLOUDY    57  54  88 NE5       29.86S
WATERTOWN      CLOUDY    58  53  84 NE7       29.83
FT DRUM        CLOUDY    57  52  82 NE3       29.83
ALBANY         CLOUDY    54  51  90 N5        29.86
GLENS FALLS    PTSUNNY   55  51  86 N10       29.87

$$
NHZ002-005-011-261500-
_____NEW HAMPSHIRE_____


CITY           SKY/WX    TMP DP  RH WIND       PRES   REMARKS
LEBANON        CLOUDY    53  50  89 NW5       29.93
KEENE          CLOUDY    54  48  82 NE9       29.91
MT WASHINGTON  LGT RAIN  43  43 100 SE44G53     N/A  VSB 1/16WCI  30
PLYMOUTH       CLOUDY    50  48  95 CALM      29.97S FOG
WHITEFIELD     CLOUDY    53  46  77 E14G20    29.95

$$

_____REGIONAL QUEBEC LOCATIONS_____


CITY           SKY/WX    TMP DP  RH WIND       PRES   REMARKS
MONTREAL       DRIZZLE   50  48  93 NE12      29.91F FOG
QUEBEC CITY    CLOUDY    46  45  93 E7        30.00F
SHERBROOKE     PTSUNNY   54  52  94 E9        29.94F

_____REGIONAL ONTARIO LOCATIONS_____


CITY           SKY/WX    TMP DP  RH WIND       PRES   REMARKS
OTTAWA         CLOUDY    54  50  87 NE12      29.88F

______KEY______
VSB  - VISIBILITY IN MILES
WCI  - WIND CHILL INDEX
HX   - HEAT INDEX
$$
NNNN



USA.gov is the U.S. government's official web portal to all federal, state and local government web resources and services.